Location: Oshawa
(43.9000°N, 78.8670°W)
Time: 07:56:28
(UTC-04:00)

Daily predictions for brighter satellites

Satellite Brightness Start Highest point End
(mag) Time Altitude Azimuth Time Altitude Azimuth Time Altitude Azimuth
Meteor 2-4 Rocket 3.9 20:27:18 10° N 20:33:08 82° E 20:39:04 10° SSE
Cosmos 1461 3.7 20:29:22 10° NNW 20:33:10 34° NE 20:36:49 10° ESE
Resurs 01 Rocket 2.6 20:29:25 10° S 20:33:43 52° W 20:38:05 10° NNW
Lacrosse 5 rocket 2.4 20:30:33 10° NNW 20:33:55 29° NNE 20:37:09 10° E
Cosmos 1934 Rocket 4.1 20:28:19 10° SSE 20:34:13 53° E 20:40:15 10° NNE
Envisat 4.3 20:32:05 10° ESE 20:36:00 23° ENE 20:39:57 10° NNE
Cosmos 1400 Rocket 4.3 20:32:21 10° SSW 20:36:17 43° WNW 20:40:12 10° N
Cosmos 1315 Rocket 3.1 20:32:38 10° SSW 20:36:37 75° W 20:40:42 10° N
Cosmos 2278 4.2 20:35:04 10° S 20:40:14 37° ESE 20:45:26 10° NE
Cosmos 1697 Rocket 4.3 20:38:21 10° SE 20:41:03 14° E 20:43:44 10° ENE
Tiangong 1 1.3 20:38:37 10° WSW 20:41:38 50° SSE 20:44:39 10° E
DELTA 2 R/B (1) 3.8 20:38:08 10° WSW 20:43:35 56° S 20:49:00 10° ESE
CZ-4 DEB 3.9 20:42:22 10° SE 20:45:01 26° ENE 20:47:42 10° NNE
USA 186 1.6 20:45:59 10° SSE 20:49:07 71° ENE 20:52:04 10° N
Meteor 1-23 Rocket 4.4 20:44:36 10° NNW 20:50:15 79° W 20:55:55 10° S
OTV 4 1.8 20:47:44 10° WSW 20:50:16 25° S 20:52:22 13° SE
H-2A R/B 2.8 20:47:02 10° SSE 20:50:53 88° E 20:54:50 10° NNW
CZ-4B DEB 4.0 20:49:12 10° S 20:52:21 46° W 20:55:33 10° NNW
Cosmos 2369 4.1 20:47:47 10° S 20:53:05 42° ESE 20:58:26 10° NE
ATLAS CENTAUR R/B 3.5 20:50:01 10° WSW 20:54:42 37° NW 20:59:16 10° NNE
Iridium 4 Rocket 4.0 20:49:52 10° NNE 20:54:44 37° E 20:59:11 10° SSE
EP 2 4.1 20:52:13 10° SSW 20:54:47 70° SE 20:57:37 10° NE
Cosmos 1939 Rocket 3.9 20:52:33 11° SE 20:56:01 31° ENE 20:59:42 10° N
Cosmos 1544 Rocket 3.5 20:51:52 10° S 20:56:14 88° E 21:00:40 10° N
Cosmos 1980 Rocket 3.9 21:02:28 12° E 21:02:43 12° E 21:04:56 10° ENE
CZ-2D R/B 4.0 21:02:06 10° S 21:05:52 54° W 21:09:41 10° NNW
NOSS 2-1 (D) 3.9 21:05:59 10° SW 21:09:51 64° NW 21:14:23 10° NNE
NOSS 2-1 (C) 3.9 21:07:00 10° SW 21:10:53 65° NW 21:15:24 10° NNE
Cosmos 1898 Rocket 4.3 21:06:15 10° N 21:11:10 37° ENE 21:14:34 18° ESE
ERS-1 Rocket 3.0 21:07:35 10° SSE 21:12:31 61° ENE 21:17:28 10° N
Cosmos 1821 Rocket 4.5 21:08:18 10° SSW 21:14:22 64° W 21:20:25 10° N
Cosmos 1346 Rocket 3.2 21:12:44 10° NNW 21:16:38 62° W 21:20:33 10° S
Cosmos 1605 Rocket 4.0 21:10:49 10° S 21:17:10 81° E 21:23:28 10° N
RESURS DK-1 3.9 21:18:22 10° N 21:21:42 23° NE 21:23:22 18° E
Cosmos 2100 Rocket 4.5 21:17:22 10° SSE 21:23:08 39° E 21:28:53 10° NNE
NOSS 2-1 (E) 4.4 21:23:03 10° SW 21:26:56 50° NW 21:31:31 10° NNE
Cosmos 2227 Rocket 2.3 21:21:45 10° NNW 21:27:26 76° WSW 21:32:24 14° SSE
YAOGAN 11 4.2 21:26:25 11° S 21:30:51 79° WSW 21:35:21 10° NNW
ALOS 4.1 21:29:28 10° SSW 21:33:33 30° W 21:37:40 10° NW
Cosmos 468 Rocket 4.4 21:29:34 10° S 21:34:18 39° ESE 21:39:03 10° NE
Cosmos 1500 3.2 21:34:20 24° SSE 21:36:23 54° E 21:40:05 10° NNE
Cosmos 1825 Rocket 4.3 21:32:57 10° N 21:37:02 35° ENE 21:38:16 29° ESE
BREEZE-M DEB (TANK) 4.1 21:24:16 10° SW 21:39:29 56° SSE 21:42:56 20° E
Cosmos 2082 4.0 21:34:27 10° NNW 21:40:01 65° WSW 21:44:33 16° S
Cosmos 1814 Rocket 4.5 21:37:52 18° SSE 21:41:17 39° ESE 21:46:13 10° NE
Cosmos 1656 3.7 21:36:04 10° S 21:41:34 59° ESE 21:47:03 10° NNE
Cosmos 2297 Rocket 2.3 21:37:37 10° NNW 21:43:18 79° WSW 21:47:09 21° SSE
Cosmos 1953 Rocket 4.4 21:41:17 10° N 21:45:16 31° ENE 21:45:59 30° E
USA 215 3.8 21:42:02 19° E 21:46:30 50° NNE 21:52:45 10° NW
Lacrosse 5 2.3 21:44:27 10° NW 21:49:25 51° NE 21:51:36 30° E
H-2A R/B 1.8 21:49:23 34° SSE 21:51:06 81° ENE 21:55:15 10° NNW
Cosmos 1340 3.4 21:47:52 10° N 21:51:24 35° ENE 21:51:29 35° ENE
deb Chang Zheng 4 3.5 21:49:44 10° NNE 21:54:13 72° ESE 21:57:05 22° S
Cosmos 1626 Rocket 4.4 21:50:29 10° NNW 21:54:45 49° W 21:58:22 14° SSW
SPOT 5 2.9 21:52:31 30° SSE 21:55:01 74° ENE 21:59:54 10° N
Cosmos 1515 4.2 21:53:25 10° NNW 21:57:13 59° W 21:59:10 26° SSW
Cosmos 858 Rocket 4.4 21:52:19 10° NNW 21:57:39 80° ENE 21:59:55 35° SSE
Cosmos 2298 Rocket 4.0 21:52:56 10° NNW 21:58:17 84° WSW 22:00:55 31° SSE
Cosmos 1975 3.9 21:57:22 10° SSW 22:01:19 46° WNW 22:05:18 10° N
Cosmos 1459 Rocket 3.8 21:59:01 17° S 22:03:46 76° E 22:09:52 10° N
Cosmos 1758 Rocket 4.0 22:00:27 10° N 22:04:38 42° ENE 22:04:48 41° E
Nimbus 7 Rocket 4.4 21:59:49 10° NNE 22:05:54 83° ESE 22:11:59 10° SSW
Cosmos 1743 2.6 22:06:26 65° SE 22:06:46 69° E 22:10:40 10° NNE
H-2A R/B 3.0 22:10:13 29° ENE 22:10:39 29° ENE 22:14:54 10° N
YAOGAN 6 2.4 22:12:12 81° SSE 22:12:22 88° ENE 22:16:06 10° NNW
Cosmos 1066 Rocket 4.5 22:07:01 10° NNW 22:12:36 67° W 22:16:06 24° S
Lacrosse 5 rocket 1.9 22:09:44 10° WNW 22:13:12 39° SW 22:13:22 38° SW
Envisat 3.8 22:11:14 19° SSW 22:14:43 48° W 22:19:38 10° NNW
GEOS 3 Rocket 4.1 22:11:16 10° NE 22:15:07 39° E 22:15:07 39° E
Cosmos 2098 Rocket 4.3 22:14:27 37° SE 22:16:56 53° E 22:22:53 10° NNE
Tiangong 1 2.5 22:14:57 10° W 22:16:48 33° W 22:16:48 33° W
MetOp-A 4.2 22:15:53 36° S 22:18:10 79° WSW 22:23:33 10° NNW
Cosmos 1937 Rocket 3.5 22:14:11 10° NNW 22:19:29 84° WSW 22:21:02 47° SSE
Cosmos 1842 3.9 22:19:38 10° N 22:22:45 44° NE 22:22:45 44° NE
Cosmos 1697 Rocket 2.6 22:18:31 10° SSW 22:24:11 86° WNW 22:29:52 10° NNE
Landsat 7 4.3 22:24:24 42° ENE 22:24:26 42° ENE 22:28:56 10° N
Cosmos 2058 Rocket 3.5 22:25:44 47° ENE 22:25:44 47° ENE 22:29:27 10° NNE
Cosmos 1802 Rocket 4.0 22:20:59 22° S 22:25:22 87° W 22:31:51 10° N
Cosmos 2150 Rocket 4.4 22:20:26 10° NNW 22:25:28 55° WSW 22:27:16 36° SSW
PSLV R/B 4.5 22:26:51 40° NW 22:26:51 40° NW 22:29:00 10° NNW
SL-16 R/B 4.0 22:29:58 16° ENE 22:29:58 16° ENE 22:31:32 10° NE
CZ-4 R/B 4.5 22:23:04 10° NNE 22:26:36 38° ENE 22:26:36 38° ENE
SPOT 1/Viking Rocket 3.5 22:28:06 56° SSE 22:29:16 87° ENE 22:34:31 10° NNW
DELTA 2 R/B (1) 4.0 22:24:24 10° W 22:29:38 42° SSW 22:29:48 42° S
NOAA 11 4.1 22:29:44 54° SSE 22:31:01 84° ENE 22:36:32 10° NNW
ASTEX 1 3.5 22:26:27 10° N 22:31:28 78° W 22:33:04 44° SSW
SL-08 R/B 4.4 22:30:45 43° S 22:32:56 76° E 22:39:07 10° N
Cosmos 2084 3.9 22:29:27 10° NW 22:33:22 50° WSW 22:33:22 50° WSW
SL-08 RB Rocket 3.6 22:35:12 76° E 22:35:20 77° ENE 22:40:00 10° N
Meteor 1-15 Rocket 4.4 22:35:41 55° ESE 22:36:05 56° E 22:41:50 10° NNE
Cosmos 990 Rocket 4.0 22:31:42 10° NNW 22:36:59 80° WSW 22:37:48 63° S
Cosmos 1606 Rocket 3.6 22:38:14 67° WSW 22:38:36 72° W 22:43:03 10° N
Terra 2.5 22:40:15 41° NE 22:40:15 41° NE 22:44:18 10° N
CZ-4B R/B 3.2 22:39:27 10° NNE 22:44:02 79° ENE 22:44:02 79° ENE
Cosmos 1980 Rocket 2.1 22:44:07 48° SSW 22:45:48 87° ESE 22:51:33 10° NNE
Cosmos 2016 Rocket 4.1 22:43:28 32° SSW 22:46:27 72° W 22:52:39 10° N
CARTOSAT-1 4.4 22:50:34 41° NNE 22:50:34 41° NNE 22:53:46 10° N
ARGOS 3.3 22:49:32 57° SSW 22:50:27 68° WSW 22:55:50 10° NNW
Cosmos 1125 Rocket 3.6 22:54:24 10° NNW 22:59:15 65° NE 22:59:15 65° NE
RESURS DK-1 3.7 22:56:03 10° NW 22:59:18 34° W 22:59:18 34° W
Cosmos 1666 4.2 23:02:40 34° NNW 23:02:40 34° NNW 23:05:00 10° N
Cosmos 1726 Rocket 4.4 23:03:16 45° W 23:03:21 45° WNW 23:07:36 10° N
Cosmos 1763 Rocket 3.6 23:04:52 63° W 23:05:17 67° WNW 23:10:21 10° NNE
CZ-4C R/B 4.2 23:07:43 54° NNW 23:07:43 54° NNW 23:11:12 10° NNW
Tsikada Rocket 4.2 23:05:02 10° NNW 23:11:24 68° W 23:12:34 57° SW
Cosmos 2263 Rocket 2.8 23:09:45 10° NNW 23:14:41 44° NE 23:14:41 44° NE
Cosmos 2322 Rocket 3.1 23:18:33 38° NE 23:18:33 38° NE 23:22:06 10° NNE
Cosmos 2360 4.3 23:19:45 69° W 23:20:07 72° WNW 23:25:52 10° NNE
Cosmos 841 Rocket 4.1 23:24:39 50° W 23:25:07 52° WNW 23:30:14 10° NNE
USA 215 3.3 23:29:23 61° SW 23:29:25 61° SW 23:35:54 10° NW
Lacrosse 5 3.4 23:27:43 10° WNW 23:30:48 28° W 23:30:48 28° W
H-2A R/B 3.3 23:50:51 33° WNW 23:50:51 33° WNW 23:54:32 10° NNW
Cosmos 2278 Rocket 4.5 23:52:36 10° N 23:55:33 14° NE 23:56:46 13° NE
